Погода в Дмитриевском

Россия / Ярославская область     57°59′47″N   40°10′39″E
темп.,
°C
ветер,
м/с
пор.,
м/с
влажн.,
%
обл.,
%
осадки,
мм/ч
давл.,
гПа
погр.,
м
21 января, пт
пт2100:00−5ю61393100 0.2 1001580
03:00−6ю61294100 0.3 1001524
06:00−7ююв51195100 1.1 1001502
09:00−8ююв51095100 1.9 1002445
12:00−7юв41095100 1.0 1002507
15:00−7юв51095100 2.3 1001580
18:00−7юв51195100 1.3 1002691
21:00−7юв51195100 2.2 1002588
22 января, сб
сб2200:00−7юв51095100 0.6 1004475
03:00−8вюв41095100 1.1 1005430
06:00−8вюв4995100 1.2 1006445
09:00−8вюв4995100 1.7 1009321
12:00−7вюв41095100 0.3 1011414
15:00−6вюв4894100 0.6 1013497
18:00−8вюв499596 0.2 1016312
21:00−9в389690 0.4 1018258
23 января, вс
вс2300:00−11всв269878 0.2 1020106
03:00−15всв2210091 0.3 102222
06:00−12св129791 0.1 102457
09:00−11св1297100 0.2 102650
12:00−8всв0193100 0.3 1028193
15:00−7всв119567 0.4 103069
18:00−15с1110093 0.0 10339
21:00−17св11100100 0.1 10359
24 января, пн
пн2400:00−18с00100100 0.0 10369
03:00−20юв00100100 0.1 10379
06:00−20с11100100 0.0 10389
09:00−21юв11100100 0.1 103810
12:00−12ююв129797 0.0 1037109
15:00−11вюв119753 0.0 103612
18:00−18юв1110085 0.0 10369
21:00−19юв11100100 0.0 10359
25 января, вт
вт2500:00−18ююв12100100 0.0 103327
03:00−19ююв22100100 0.1 103119
06:00−20ююв11100100 0.0 102919
09:00−21ююв2310097 0.0 102838
12:00−13ю2594100 0.0 1026159
15:00−11ююв2596100 0.0 1025173
18:00−14ююв2799100 0.0 1024112
21:00−12ю2798100 0.0 1025176